Location: Taukkyan
(23.1052°N, 94.0030°E)
Time: 11:00:28
(UTC+00:00)

GEOS 3 Rocket - Pass Details

Date: 06 July 2020
Orbit: 771 x 848 km, 115.0° (Epoch: 14 August)

Event Time Altitude Azimuth Distance (km) Brightness Sun altitude
Rises 13:54:59 0° 31° (NNE) 3,406 6.9 -17.0°
Reaches altitude 10° 13:57:19 10° 32° (NNE) 2,468 6.2 -17.5°
Maximum altitude 14:02:43 84° 120° (ESE) 850 3.6 -18.5°
Drops below altitude 10° 14:08:03 10° 209° (SSW) 2,437 6.0 -19.5°
Sets 14:10:20 0° 209° (SSW) 3,360 6.7 -19.9°
